Torna al catalogo

KUIPER-00266

AttivoComunicazioniLEO
NORAD 67789·PAYLOAD·🇺🇸 United States

Lanciato Feb 12, 2026 da Guiana Space Centre

Loading…

Prossimi Passaggi (prossime 24 ore)

TLE

AggiornatoSource: CelesTrak SupGP

Epoca: Sep 14, 2026, 21:58 UTC

1 67789C 26030AB  26257.91540509  .00007240  00000+0  94760-3 0  2571
2 67789  51.8988  76.3675 0001051 106.3756  18.3312 14.79927403    12

Traccia KUIPER-00266 in tempo reale con AllMySat

Download on the App Store